SCP
0 0 0 0 0 0 0 0 0 0 0 0 -0 -0 -0 -0 -0 -0 -0 -0 -0 -0 -0 -0 -0 -0 -0 -0 -0 -0 -0 -0
0 1 1 0 0 0 0 0 0 0 0 0 0 0 -0 -0 -0 -0 -0 -0 -0 -0 -0 -0 -0 -0 -0 -0 -0 -0 -0 -0
0 1 1 1 1 0 0 0 0 0 0 0 0 0 0 -0 -0 -0 -0 -0 -0 -0 -0 -0 -0 -0 -0 -0 -0 -0 -0 -0
1 1 1 1 1 1 1 1 1 0 0 0 0 0 0 0 0 0 0 0 0 0 0 0 -0 -0 -0 -0 -0 -0 -0 -0
1 1 1 1 1 1 1 1 1 1 1 0 0 0 0 0 0 0 0 0 0 0 0 0 0 0 -0 -0 -0 -0 -0 -0
1 1 0 1 1 1 1 1 1 1 1 1 0 0 0 0 0 0 0 0 0 0 0 0 0 0 0 0 0 0 0 0
2 1 0 0 0 0 1 1 1 1 1 1 1 1 1 0 0 0 0 0 0 0 0 0 0 0 0 0 0 0 0 0
2 1 0 0 0 0 0 1 1 1 1 1 1 1 1 0 0 0 0 0 0 0 0 0 0 0 0 0 0 0 0 0
0 2 1 1 0 0 0 1 1 1 1 1 1 1 1 1 0 0 0 0 0 0 0 0 0 0 0 0 0 0 0 0
-0 1 2 1 0 0 1 1 1 0 1 1 1 1 1 1 0 0 0 0 0 0 0 0 0 0 0 0 0 0 0 0
-0 0 4 5 4 2 4 1 1 1 1 0 0 1 1 1 1 1 0 0 0 0 0 0 0 0 0 0 0 0 0 0
0 -0 1 1 3 2 -0 2 5 1 1 1 1 1 1 1 1 1 1 1 1 0 0 0 0 0 0 0 0 0 0 0
0 -0 1 0 0 0 0 2 4 4 3 1 1 1 1 1 2 1 1 1 1 1 0 0 0 0 0 0 0 0 0 1
0 0 0 0 0 0 1 2 3 3 3 4 2 2 2 2 1 2 2 1 1 1 1 1 0 0 0 0 0 0 0 1
0 0 0 0 0 1 2 2 3 3 2 3 3 2 2 2 2 2 2 2 2 1 1 1 1 0 0 0 0 0 1 1
0 0 0 0 0 0 0 0 3 3 3 2 2 2 2 3 2 3 3 3 3 2 1 1 1 1 1 1 1 1 2 3
0 0 0 0 0 0 0 0 1 1 3 3 4 3 3 3 4 4 3 4 4 4 2 2 2 2 1 2 2 2 2 1
0 0 0 0 0 0 0 0 0 0 1 2 3 4 3 3 4 5 4 5 6 3 4 3 3 2 2 2 2 2 4 2
0 0 0 0 0 0 0 0 0 0 0 0 0 1 2 4 3 4 4 5 6 6 3 5 5 4 2 2 3 1 3 2
Wind_Speed_500mb
38 45 48 50 48 46 42 39 37 34 32 29 26 24 23 24 23 22 20 18 17 16 15 15 14 13 11 10 11 14 17 22
32 43 46 46 45 44 42 39 37 35 33 30 27 23 21 21 21 21 20 19 18 16 14 13 12 10 8 8 7 10 12 15
15 29 38 41 42 42 41 40 37 36 34 32 28 24 22 21 20 19 19 19 18 17 16 15 13 10 8 6 5 6 10 13
15 13 23 37 41 41 40 39 39 40 39 38 34 30 23 20 20 20 20 19 18 17 15 13 11 9 7 6 5 6 7 10
21 18 19 35 43 44 43 40 38 40 42 42 39 35 30 25 22 21 20 20 19 17 15 13 11 10 8 4 2 6 9 5
31 24 21 19 44 44 43 42 41 40 42 44 43 41 38 33 28 27 26 25 23 21 19 16 14 12 9 6 4 8 16 11
44 37 25 22 30 42 43 43 41 42 46 49 49 49 45 41 37 34 33 33 29 27 24 21 18 16 12 10 12 5 10 13
57 54 26 40 24 27 41 43 46 44 45 49 52 53 50 47 45 43 42 44 42 39 34 30 26 23 19 18 19 16 11 8
16 62 59 51 33 26 22 30 30 31 43 50 54 56 58 57 54 52 51 48 48 46 42 39 36 31 27 24 26 18 15 16
39 18 68 54 48 37 22 26 30 37 37 35 56 58 59 61 61 55 56 53 49 47 49 48 44 38 34 33 30 16 27 23
30 5 59 58 59 52 34 38 30 35 41 41 39 46 59 58 60 61 61 57 52 49 42 49 50 46 41 33 26 27 27 24
23 5 19 38 47 54 66 36 43 43 42 41 43 42 42 44 50 61 63 63 62 56 49 41 42 40 42 40 37 35 31 31
22 20 15 35 36 33 40 42 49 52 47 43 39 52 53 48 46 52 68 70 69 65 54 50 51 47 50 52 42 39 40 38
31 20 16 9 3 22 28 37 43 42 65 66 61 61 57 61 57 56 58 76 76 76 66 65 65 66 64 57 47 43 45 44
26 27 23 16 9 9 29 46 44 45 44 64 72 61 70 65 68 70 66 69 77 88 89 84 86 78 74 63 59 56 52 47
33 36 37 38 25 13 18 31 47 51 50 49 48 59 71 75 76 76 81 78 81 83 89 96 91 89 88 81 67 58 55 54
29 21 25 28 26 25 22 21 30 39 46 58 62 59 61 76 85 87 84 88 88 84 87 93 95 98 97 88 74 59 59 62
32 21 8 3 7 17 23 29 34 44 54 50 49 60 72 77 84 84 86 95 97 91 88 94 97 95 99 91 83 61 31 39
19 13 6 1 9 22 25 31 32 38 44 57 58 60 62 62 79 85 91 102 108 82 79 85 98 99 99 98 88 94 78 56
Wind_Direction_500mb
178 166 166 165 166 167 169 168 170 170 170 167 162 160 161 160 159 157 152 148 144 141 139 132 127 128 127 118 105 98 106 122
163 170 169 170 170 172 174 176 178 180 179 178 176 174 172 173 171 169 166 162 156 150 146 140 138 141 140 125 108 101 107 135
140 160 174 175 175 177 178 181 185 188 188 188 189 190 184 187 186 185 183 178 170 166 163 160 163 166 164 145 121 100 100 114
178 188 182 186 183 183 185 187 189 192 194 196 198 197 202 200 200 201 200 196 187 182 181 178 179 182 194 173 140 102 84 94
203 219 200 200 192 189 189 192 195 198 199 200 201 206 208 209 214 212 214 211 208 199 196 197 199 204 206 216 124 62 30 80
206 222 217 213 198 196 195 196 196 200 204 204 206 210 214 216 216 217 219 218 217 215 211 211 211 215 221 208 164 74 54 37
200 212 224 216 204 203 203 204 205 204 205 208 211 213 217 219 221 223 221 220 220 222 221 219 223 223 215 215 206 179 96 83
204 207 230 231 200 197 208 206 213 213 215 217 218 217 219 226 225 227 226 222 218 218 220 220 220 222 220 221 220 216 185 178
243 216 208 205 208 197 205 201 202 231 228 228 227 224 221 222 229 231 230 227 225 223 223 222 221 220 221 221 221 233 227 224
298 262 203 198 216 211 200 215 223 238 250 255 235 234 229 227 226 230 234 232 231 232 228 229 227 223 220 215 215 224 237 229
290 240 191 199 209 203 186 207 224 233 247 256 248 242 240 234 234 230 230 235 237 235 234 233 230 227 223 224 218 214 216 223
268 230 199 205 205 215 197 234 218 240 233 245 256 250 246 249 241 228 224 232 236 233 231 234 228 225 226 229 231 219 221 232
236 104 162 198 214 227 249 246 220 222 237 233 244 246 252 251 250 238 226 226 232 232 232 229 222 223 221 226 233 235 230 234
206 178 148 160 155 231 226 237 231 247 238 236 232 240 248 248 243 246 240 235 229 229 224 223 224 225 228 229 228 231 226 222
236 223 220 199 236 222 226 235 245 243 246 240 238 231 242 246 247 244 244 244 239 233 227 221 223 222 228 234 233 229 223 225
227 237 239 248 253 244 221 237 242 246 248 246 248 243 236 241 246 250 247 247 243 240 238 228 229 229 229 233 235 229 229 228
173 194 229 249 257 270 279 260 235 239 243 255 262 262 258 245 242 246 251 254 249 243 244 239 234 234 233 234 227 230 227 228
132 124 123 206 267 277 277 272 262 252 248 251 258 258 253 252 251 248 248 253 255 251 247 243 236 234 237 234 226 220 213 226
129 115 130 262 292 300 304 302 290 278 268 250 252 252 252 260 264 256 250 247 247 244 248 248 241 237 236 235 231 224 234 242
Wind_Speed_850mb
38 45 48 50 48 46 42 39 37 34 32 29 26 24 23 24 23 22 20 18 17 16 15 15 14 13 11 10 11 14 17 22
32 43 46 46 45 44 42 39 37 35 33 30 27 23 21 21 21 21 20 19 18 16 14 13 12 10 8 8 7 10 12 15
15 29 38 41 42 42 41 40 37 36 34 32 28 24 22 21 20 19 19 19 18 17 16 15 13 10 8 6 5 6 10 13
15 13 23 37 41 41 40 39 39 40 39 38 34 30 23 20 20 20 20 19 18 17 15 13 11 9 7 6 5 6 7 10
21 18 19 35 43 44 43 40 38 40 42 42 39 35 30 25 22 21 20 20 19 17 15 13 11 10 8 4 2 6 9 5
31 24 21 19 44 44 43 42 41 40 42 44 43 41 38 33 28 27 26 25 23 21 19 16 14 12 9 6 4 8 16 11
44 37 25 22 30 42 43 43 41 42 46 49 49 49 45 41 37 34 33 33 29 27 24 21 18 16 12 10 12 5 10 13
57 54 26 40 24 27 41 43 46 44 45 49 52 53 50 47 45 43 42 44 42 39 34 30 26 23 19 18 19 16 11 8
16 62 59 51 33 26 22 30 30 31 43 50 54 56 58 57 54 52 51 48 48 46 42 39 36 31 27 24 26 18 15 16
39 18 68 54 48 37 22 26 30 37 37 35 56 58 59 61 61 55 56 53 49 47 49 48 44 38 34 33 30 16 27 23
30 5 59 58 59 52 34 38 30 35 41 41 39 46 59 58 60 61 61 57 52 49 42 49 50 46 41 33 26 27 27 24
23 5 19 38 47 54 66 36 43 43 42 41 43 42 42 44 50 61 63 63 62 56 49 41 42 40 42 40 37 35 31 31
22 20 15 35 36 33 40 42 49 52 47 43 39 52 53 48 46 52 68 70 69 65 54 50 51 47 50 52 42 39 40 38
31 20 16 9 3 22 28 37 43 42 65 66 61 61 57 61 57 56 58 76 76 76 66 65 65 66 64 57 47 43 45 44
26 27 23 16 9 9 29 46 44 45 44 64 72 61 70 65 68 70 66 69 77 88 89 84 86 78 74 63 59 56 52 47
33 36 37 38 25 13 18 31 47 51 50 49 48 59 71 75 76 76 81 78 81 83 89 96 91 89 88 81 67 58 55 54
29 21 25 28 26 25 22 21 30 39 46 58 62 59 61 76 85 87 84 88 88 84 87 93 95 98 97 88 74 59 59 62
32 21 8 3 7 17 23 29 34 44 54 50 49 60 72 77 84 84 86 95 97 91 88 94 97 95 99 91 83 61 31 39
19 13 6 1 9 22 25 31 32 38 44 57 58 60 62 62 79 85 91 102 108 82 79 85 98 99 99 98 88 94 78 56
Wind_Direction_850mb
178 166 166 165 166 167 169 168 170 170 170 167 162 160 161 160 159 157 152 148 144 141 139 132 127 128 127 118 105 98 106 122
163 170 169 170 170 172 174 176 178 180 179 178 176 174 172 173 171 169 166 162 156 150 146 140 138 141 140 125 108 101 107 135
140 160 174 175 175 177 178 181 185 188 188 188 189 190 184 187 186 185 183 178 170 166 163 160 163 166 164 145 121 100 100 114
178 188 182 186 183 183 185 187 189 192 194 196 198 197 202 200 200 201 200 196 187 182 181 178 179 182 194 173 140 102 84 94
203 219 200 200 192 189 189 192 195 198 199 200 201 206 208 209 214 212 214 211 208 199 196 197 199 204 206 216 124 62 30 80
206 222 217 213 198 196 195 196 196 200 204 204 206 210 214 216 216 217 219 218 217 215 211 211 211 215 221 208 164 74 54 37
200 212 224 216 204 203 203 204 205 204 205 208 211 213 217 219 221 223 221 220 220 222 221 219 223 223 215 215 206 179 96 83
204 207 230 231 200 197 208 206 213 213 215 217 218 217 219 226 225 227 226 222 218 218 220 220 220 222 220 221 220 216 185 178
243 216 208 205 208 197 205 201 202 231 228 228 227 224 221 222 229 231 230 227 225 223 223 222 221 220 221 221 221 233 227 224
298 262 203 198 216 211 200 215 223 238 250 255 235 234 229 227 226 230 234 232 231 232 228 229 227 223 220 215 215 224 237 229
290 240 191 199 209 203 186 207 224 233 247 256 248 242 240 234 234 230 230 235 237 235 234 233 230 227 223 224 218 214 216 223
268 230 199 205 205 215 197 234 218 240 233 245 256 250 246 249 241 228 224 232 236 233 231 234 228 225 226 229 231 219 221 232
236 104 162 198 214 227 249 246 220 222 237 233 244 246 252 251 250 238 226 226 232 232 232 229 222 223 221 226 233 235 230 234
206 178 148 160 155 231 226 237 231 247 238 236 232 240 248 248 243 246 240 235 229 229 224 223 224 225 228 229 228 231 226 222
236 223 220 199 236 222 226 235 245 243 246 240 238 231 242 246 247 244 244 244 239 233 227 221 223 222 228 234 233 229 223 225
227 237 239 248 253 244 221 237 242 246 248 246 248 243 236 241 246 250 247 247 243 240 238 228 229 229 229 233 235 229 229 228
173 194 229 249 257 270 279 260 235 239 243 255 262 262 258 245 242 246 251 254 249 243 244 239 234 234 233 234 227 230 227 228
132 124 123 206 267 277 277 272 262 252 248 251 258 258 253 252 251 248 248 253 255 251 247 243 236 234 237 234 226 220 213 226
129 115 130 262 292 300 304 302 290 278 268 250 252 252 252 260 264 256 250 247 247 244 248 248 241 237 236 235 231 224 234 242